Total_Precipitation_Accumulation
2.28 2.36 2.30 2.24 2.22 2.14 2.15 2.33 2.46 2.30 2.09 1.85 1.68 1.61 1.61 1.52 1.62 1.43 1.40 1.34 1.17 1.13 1.15 1.13 1.32 1.67 1.96 2.20 2.43 2.42 2.58 2.75 2.82 2.94 2.93 2.78 2.74 2.57
2.28 2.38 2.42 2.38 2.40 2.34 2.23 2.21 2.16 2.22 2.13 1.87 1.67 1.58 1.71 1.57 1.69 1.44 1.42 1.62 1.39 1.29 1.21 1.08 1.08 1.18 1.32 1.56 1.84 2.01 2.05 2.12 2.17 2.40 2.61 2.61 2.51 2.35
2.08 2.19 2.33 2.37 2.48 2.51 2.53 2.42 2.28 2.23 2.17 1.96 1.75 1.64 1.82 1.82 1.71 1.60 1.48 1.44 1.44 1.44 1.30 1.24 1.17 1.08 1.12 1.22 1.48 1.69 1.89 1.77 1.61 1.70 1.92 2.02 2.22 2.26
1.98 1.95 2.00 2.08 2.20 2.35 2.45 2.42 2.43 2.32 2.25 2.25 2.05 1.81 1.73 1.78 1.81 1.85 1.74 1.51 1.46 1.57 1.49 1.39 1.33 1.21 1.10 1.08 1.20 1.30 1.46 1.55 1.37 1.25 1.33 1.43 1.53 1.72
1.80 1.70 1.68 1.77 1.90 2.04 2.11 2.20 2.35 2.39 2.40 2.37 2.30 2.11 1.86 1.84 1.90 1.91 1.91 1.96 1.69 1.60 1.60 1.56 1.50 1.46 1.35 1.17 1.09 1.12 1.14 1.23 1.24 1.10 1.02 1.11 1.17 1.33
1.46 1.43 1.43 1.45 1.55 1.71 1.84 2.04 2.23 2.36 2.44 2.44 2.39 2.17 1.99 1.92 1.89 1.92 2.02 2.08 2.04 1.78 1.67 1.59 1.66 1.61 1.46 1.33 1.20 1.14 1.15 1.16 1.20 1.21 1.03 0.94 0.96 1.00
1.24 1.10 1.09 1.17 1.20 1.30 1.31 1.59 1.87 2.10 2.23 2.29 2.27 2.13 1.93 1.83 1.69 1.73 1.87 2.05 2.11 2.05 1.94 1.67 1.60 1.54 1.49 1.46 1.35 1.26 1.20 1.24 1.24 1.26 1.26 1.13 1.08 1.04
1.08 0.98 0.94 0.98 0.93 0.92 0.95 1.18 1.49 1.67 1.84 2.03 2.08 1.96 1.79 1.73 1.78 1.77 1.77 1.82 1.85 1.76 1.75 1.74 1.65 1.57 1.51 1.47 1.50 1.46 1.35 1.31 1.37 1.36 1.39 1.35 1.27 1.26
1.07 1.08 0.98 0.92 1.01 0.90 0.85 0.95 1.04 1.17 1.34 1.61 1.82 1.79 1.89 1.80 1.71 1.64 1.64 1.68 1.67 1.72 1.74 1.72 1.62 1.53 1.43 1.40 1.54 1.45 1.44 1.41 1.43 1.49 1.44 1.49 1.46 1.38
1.13 1.21 1.21 1.11 1.09 1.17 1.09 1.08 1.04 0.98 1.09 1.01 1.20 1.58 1.74 1.81 1.78 1.81 1.90 1.83 1.66 1.67 1.68 1.69 1.59 1.48 1.34 1.26 1.37 1.28 1.21 1.21 1.31 1.50 1.60 1.61 1.67 1.62
1.06 1.17 1.21 1.13 1.21 1.31 1.37 1.39 1.30 1.14 1.26 1.27 1.17 1.29 1.46 1.53 1.66 1.75 1.80 1.73 1.66 1.54 1.42 1.39 1.32 1.35 1.40 1.31 1.26 1.31 1.22 1.17 1.15 1.18 1.30 1.39 1.54 1.71
1.09 1.13 1.29 1.20 1.19 1.16 1.21 1.33 1.30 1.14 1.02 1.07 1.04 0.94 0.88 1.00 1.22 1.36 1.64 1.77 1.71 1.59 1.39 1.33 1.35 1.34 1.36 1.26 1.16 1.19 1.19 1.27 1.25 1.19 1.21 1.30 1.41 1.47
1.18 1.21 1.19 1.30 1.14 1.09 1.08 1.07 1.16 1.16 1.14 1.18 1.24 1.12 1.00 0.95 0.99 1.06 1.28 1.53 1.68 1.57 1.41 1.31 1.35 1.36 1.27 1.13 1.06 1.07 1.09 1.08 1.12 1.19 1.25 1.35 1.43 1.38
1.03 1.03 1.01 1.13 0.98 0.90 0.85 0.89 0.99 1.08 1.15 1.27 1.24 1.17 1.14 1.07 1.05 1.08 1.15 1.27 1.37 1.44 1.46 1.43 1.40 1.36 1.31 1.15 1.06 1.04 1.04 1.02 0.99 1.04 1.08 1.34 1.50 1.56
0.73 0.86 0.91 0.90 0.86 0.78 0.82 0.86 0.89 0.92 1.05 1.14 1.13 1.07 1.08 1.13 1.14 1.13 1.15 1.19 1.19 1.13 1.14 1.21 1.33 1.38 1.38 1.27 1.10 1.06 1.06 1.01 0.94 0.95 1.02 1.09 1.16 1.33
0.65 0.71 0.75 0.74 0.74 0.75 0.79 0.83 0.87 0.91 0.98 1.01 1.00 1.02 1.03 1.11 1.18 1.16 1.16 1.22 1.28 1.20 1.11 1.15 1.25 1.39 1.40 1.29 1.22 1.13 1.10 1.07 0.99 0.95 0.96 1.03 1.12 1.21
0.76 0.70 0.67 0.68 0.69 0.76 0.79 0.80 0.83 0.88 0.89 0.88 0.92 0.96 0.96 1.02 1.06 1.06 1.10 1.15 1.17 1.10 1.07 1.13 1.22 1.31 1.35 1.35 1.36 1.25 1.21 1.21 1.18 1.14 1.11 1.08 1.07 1.13
0.77 0.82 0.84 0.89 0.91 0.90 0.86 0.79 0.76 0.79 0.86 0.92 0.94 0.95 0.96 0.95 0.98 1.02 1.06 1.14 1.16 1.06 0.97 1.01 1.14 1.29 1.30 1.19 1.10 1.08 1.12 1.14 1.20 1.27 1.23 1.17 1.10 1.10
0.73 0.89 0.92 0.90 0.86 0.85 0.80 0.73 0.68 0.66 0.71 0.82 0.93 1.02 1.03 1.02 1.05 1.09 1.10 1.07 1.06 1.04 0.97 0.93 1.00 1.17 1.23 1.05 0.90 0.87 0.93 0.98 1.07 1.15 1.17 1.10 1.03 1.07
0.69 0.79 0.81 0.80 0.74 0.69 0.63 0.59 0.59 0.59 0.59 0.65 0.70 0.80 0.96 1.07 1.15 1.18 1.20 1.23 1.21 1.17 1.11 1.00 0.93 0.97 1.08 1.07 0.93 0.79 0.81 0.88 0.99 1.04 1.05 1.07 1.06 1.11
0.52 0.53 0.54 0.56 0.57 0.55 0.52 0.55 0.59 0.60 0.61 0.62 0.62 0.66 0.77 0.93 1.10 1.19 1.24 1.32 1.30 1.28 1.26 1.15 1.09 1.21 1.15 1.19 1.14 0.89 0.77 0.82 0.91 0.95 0.99 1.08 1.09 1.05
0.47 0.45 0.47 0.48 0.48 0.49 0.51 0.55 0.61 0.64 0.62 0.63 0.68 0.73 0.82 0.88 0.93 1.03 1.19 1.24 1.18 1.15 1.16 1.17 1.21 1.25 1.25 1.31 1.23 1.04 0.91 0.85 0.91 0.99 1.01 1.06 1.07 1.06
0.46 0.47 0.49 0.49 0.49 0.54 0.56 0.57 0.60 0.64 0.65 0.65 0.67 0.73 0.82 0.92 0.97 1.00 1.02 1.07 1.13 1.17 1.17 1.16 1.17 1.19 1.23 1.28 1.35 1.29 1.15 1.03 1.00 1.01 1.00 1.09 1.05 0.93